Regional Weather Roundup
Issued by NWS

Home | Current Version | Previous Version | Text Only | Print | Product List | Glossary Off
Versions: 1 2 3 4 5 6 7 8 9 10 11 12 13 14 15 16 17 18 19 20 21 22 23 24 25 26 27 28 29 30 31 32 33 34 35 36 37 38 39 40 41 42 43 44 45 46 47 48 49 50

000
ASUS43 KLOT 300210
RWRIL

ILLINOIS REGIONAL WEATHER ROUNDUP
NATIONAL WEATHER SERVICE CHICAGO/ROMEOVILLE IL
900 PM CDT FRI AUG 29 2014

NOTE: "FAIR" INDICATES FEW OR NO CLOUDS BELOW 12,000 FEET WITH NO
SIGNIFICANT WEATHER AND/OR OBSTRUCTIONS TO VISIBILITY.

* THESE STATIONS ARE NOT UNDER NWS QUALITY CONTROL. THEY ALSO MAY NOT
  REPORT WEATHER SUCH AS PRECIPITATION OR FOG.

ILZ001-002-007-009-015-016-024-300300-
NORTHWEST ILLINOIS

CITY           SKY/WX    TMP DP  RH WIND       PRES   REMARKS
MOLINE         CLOUDY    73  66  78 S14       29.82R
STERLING*      CLOUDY    72  66  83 SE7       29.84F
SAVANNA*       CLOUDY    78  67  71 SE10      29.81R
$$

ILZ003-004-008-010-011-017-018-300300-
NORTH CENTRAL ILLINOIS

CITY           SKY/WX    TMP DP  RH WIND       PRES   REMARKS
ROCKFORD       CLOUDY    72  65  78 S14       29.87R
FREEPORT*      MOCLDY    75  70  83 SE10      29.86R
ROCHELLE*      CLOUDY    69  66  88 SE5       29.87F
DE KALB*       TSTM      71  66  83 SE8       29.90R
PERU*          MOCLDY    78  73  83 SE12      29.87R HX  81
$$

ILZ005-006-012>014-019>023-300300-
NORTHEAST ILLINOIS

CITY           SKY/WX    TMP DP  RH WIND       PRES   REMARKS
CHICAGO-OHARE  TSTM      79  69  71 S15       29.88S HX  81
CHICAGO-MIDWAY MOCLDY    80  70  71 S8        29.89R HX  83
AURORA         MOCLDY    75  70  84 SE7       29.88S
LANSING*         N/A    N/A N/A N/A MISG        N/A
JOLIET*        MOCLDY    75  70  83 SE7       29.89S
WAUKEGAN       PTCLDY    74  71  91 S10       29.88S
DUPAGE AIRPORT MOCLDY    77  69  76 S8        29.88S
KANKAKEE*      MOCLDY    72  69  91 SE7       29.91R
WHEELING       PTCLDY    80  71  74 SE9       29.89S HX  84
MORRIS*        MOCLDY    75  73  92 SE7       29.88R
ROMEOVILLE*    MOCLDY    74  69  82 SE10      29.89S
NORTHERLY ISL    N/A     77  66  68 S10         N/A
$$

LMZ740>746-300300-
SOUTHERN LAKE MICHIGAN

STATION/POSITION SKY/WX   TEMP    WIND        PRES    VSBY  WAVE
                          AIR SEA DIR/SP/G                  HT/PER
                          (F)     (DEG/KT/KT) (MB)    (MI)  (FT/S)
SOUTHERN BUOY              72 69  160/ 14/ 17 1012.0F         2/ 4
WAUKEGAN HARBOR            74     170/ 16/ 19   N/A
HARRISON CRIB              75     160/ 16/ 20   N/A
BURNHAM HARBOR             77     160/ 10/ 17   N/A
CALUMET HARBOR             77     150/  7/ 10 1011.2S
MICHIGAN CITY              76     140/ 11/ 16   N/A
MICHIGAN CITY 6N           75 72  160/ 17/ 25   N/A           1/ 2
ST. JOSEPH                 74 71  140/ 10/ 12   N/A           1/ 2
$$

ILZ025>027-034>036-040-047-049-050-058-095>099-300300-
WEST-CENTRAL ILLINOIS

CITY           SKY/WX    TMP DP  RH WIND       PRES   REMARKS
QUINCY         CLOUDY    73  70  90 S8        29.86R
GALESBURG*     CLOUDY    70  68  95 S8        29.86R
MACOMB*        MOCLDY    69  69 100 SE6       29.88R
JACKSONVILLE*  LGT RAIN  73  72  95 CALM      29.88S
PITTSFIELD*    CLOUDY    73  70  89 S3        29.88R
$$

ILZ028>032-037-038-041>044-048-051>054-059>061-300300-
CENTRAL ILLINOIS

CITY           SKY/WX    TMP DP  RH WIND       PRES   REMARKS
PONTIAC        PTCLDY    75  75 100 SE3       29.89R FOG
DECATUR        CLEAR     79  69  71 S12       29.91R HX  81
PEORIA         LGT RAIN  72  68  87 SW9       29.90R
LACON*         CLOUDY    77  70  78 S8        29.85R
LINCOLN*       CLOUDY    78  70  75 S5        29.86R HX  80
SPRINGFIELD    CLOUDY    74  70  87 NW5       29.90R
TAYLORVILLE    MOCLDY    75  70  83 S9        29.90R
$$

ILZ033-039-045-046-055>057-062-063-300300-
EAST-CENTRAL ILLINOIS

CITY           SKY/WX    TMP DP  RH WIND       PRES   REMARKS
CHAMPAIGN      PTCLDY    75  71  87 SE7       29.93R
DANVILLE*      HVY RAIN  72  69  91 S5        29.91R
RANTOUL*       CLEAR     76  69  79 S7        29.93R
MATTOON        CLEAR     76  67  73 S6        29.92R
PARIS*         PTCLDY    71  70  96 SE3       29.95R
$$

ILZ079-100>102-300300-
SOUTHWEST ILLINOIS

CITY           SKY/WX    TMP DP  RH WIND       PRES   REMARKS
ALTON          PTCLDY    79  64  61 S7        29.91R HX  81
BELLEVILLE     MOCLDY    78  70  76 VRB6      29.90R HX  81
CAHOKIA*       MOCLDY    80  68  66 S7        29.89R HX  83
SPARTA*        CLOUDY    78  68  72 S9        29.93S HX  80
$$

ILZ064>066-069>071-074>076-080>082-084>086-088>090-092>094-300300-
SOUTH-CENTRAL ILLINOIS

CITY           SKY/WX    TMP DP  RH WIND       PRES   REMARKS
CARBONDALE     MOCLDY    77  67  71 S7        29.94R
CAIRO*         MOCLDY    76  71  85 CALM      29.95R
EFFINGHAM*     CLEAR     77  66  68 SE6       29.93S
MARION         MOCLDY    81  68  65 S7        29.95R HX  83
MT. VERNON     CLOUDY    79  66  65 S5        29.95R HX  81
CENTRALIA*     MOCLDY    79  66  65 S12       29.93S HX  81
SALEM*         CLOUDY    82  70  67 S9        29.93S HX  85
METROPOLIS*    MOCLDY    80  69  70 CALM      29.95S HX  82
$$

ILZ067-068-072-073-078-083-087-091-300300-
SOUTHEAST ILLINOIS

CITY           SKY/WX    TMP DP  RH WIND       PRES   REMARKS
LAWRENCEVILLE  CLEAR     75  72  90 S6        29.95R
FLORA*         CLEAR     73  69  85 S6        29.94S
FAIRFIELD*     CLEAR     79  72  78 CALM      29.94R HX  82
HARRISBURG*    MOCLDY    78  70  76 S5        29.96S HX  81
ROBINSON*      CLEAR     75  73  92 S5        29.95R
CARMI*         CLEAR     77  72  85 S5        29.95R
$$

ABBREVIATIONS USED IN REMARKS
   TC - TEMPERATURE IN CELSIUS
  WCI - WIND CHILL INDEX
   HX - HEAT INDEX
  VSB - VISIBILITY
$$



USA.gov is the U.S. government's official web portal to all federal, state and local government web resources and services.